EHI
0 0 0 0 0 0 0 0 0 0 0 0 0 0 0 0 0 0 0 0 0 0 0 0 0 0 0 0 0 0 0 0 0 0 0 0 0 0 0 0 0 0 0 0
0 0 0 0 0 0 0 0 0 0 0 0 0 0 0 0 0 0 0 0 0 0 0 0 0 0 0 0 0 0 0 0 0 0 0 0 0 0 0 0 0 0 0 0
0 0 0 0 0 0 0 0 0 0 0 0 0 0 0 0 0 0 0 0 0 0 0 0 0 0 0 0 0 0 0 0 0 0 0 0 0 0 0 0 0 0 0 0
0 0 0 0 0 0 0 0 0 0 0 0 0 0 0 0 0 0 0 0 0 0 0 0 0 0 0 0 0 0 0 0 0 0 0 0 0 0 0 0 0 0 0 0
0 0 0 0 0 0 0 0 0 0 0 0 0 0 0 0 0 0 0 0 0 0 0 0 0 0 0 0 0 0 0 0 0 0 0 0 0 0 0 0 0 0 0 0
0 0 0 0 0 0 0 0 0 0 0 0 0 0 0 0 0 0 0 0 0 0 0 0 0 0 0 0 0 0 0 0 0 0 0 0 0 0 0 0 0 0 0 0
0 0 0 0 0 0 0 0 0 0 0 0 0 0 0 0 0 0 0 0 0 0 0 0 0 0 0 0 0 0 0 0 0 0 0 0 0 0 0 0 0 0 0 0
0 0 0 0 0 0 0 0 0 0 0 0 0 0 0 0 0 0 0 0 0 0 0 0 0 0 0 0 0 0 0 0 0 0 0 0 0 0 0 0 0 0 0 0
0 0 0 0 0 0 0 0 0 0 0 0 0 0 0 0 0 0 0 0 0 0 0 0 0 0 0 0 0 0 0 0 0 0 0 0 0 0 0 0 0 0 0 0
0 0 0 0 0 0 0 0 0 0 0 0 0 0 0 0 0 0 0 0 0 0 0 0 0 0 0 0 0 0 0 0 0 0 0 0 0 0 0 0 0 0 0 0
0 0 0 0 0 0 0 0 0 0 0 0 0 0 0 0 0 0 0 0 0 0 0 0 0 0 0 0 0 0 0 0 0 0 0 0 0 0 0 0 0 0 0 0
0 0 0 0 0 0 0 0 0 0 0 0 0 0 0 0 0 0 0 0 0 0 0 0 0 0 0 0 0 0 0 0 0 0 0 0 0 0 0 0 0 0 0 0
0 0 0 0 0 0 0 0 0 0 0 0 0 0 0 0 0 0 0 0 0 0 0 0 0 0 0 0 0 0 0 0 0 0 0 0 0 0 0 0 0 0 0 0
0 0 0 0 0 0 0 0 0 0 0 0 0 0 0 0 0 0 0 0 0 0 0 0 0 0 0 0 0 0 0 0 0 0 0 0 0 0 0 0 0 0 0 0
0 0 0 0 0 0 0 0 0 0 0 0 0 0 0 0 0 0 0 0 0 0 0 0 0 0 0 0 0 0 0 0 0 0 0 0 0 0 0 0 0 0 0 0
0 0 0 0 0 0 0 0 0 0 0 0 0 0 0 0 0 0 0 0 0 0 0 0 0 0 0 0 0 0 0 0 0 0 0 0 0 0 0 0 0 0 0 0
0 0 0 0 0 0 0 0 0 0 0 0 0 0 0 0 0 0 0 0 0 0 0 0 0 0 0 0 0 0 0 0 0 0 0 0 0 0 0 0 0 0 0 0
0 0 0 0 0 0 0 0 0 0 0 0 0 0 0 0 0 0 0 0 0 0 0 0 0 0 0 0 0 0 0 0 0 0 0 0 0 0 0 0 0 0 0 0
0 0 0 0 0 0 0 0 0 0 0 0 0 0 0 0 0 0 0 0 0 0 0 0 0 0 0 0 0 0 0 0 0 0 0 0 0 0 0 0 0 0 0 0
0 0 0 0 0 0 0 0 0 0 0 0 0 0 0 0 0 0 0 0 0 0 0 0 0 0 0 0 0 0 0 0 0 0 0 0 0 0 0 0 0 0 0 0
0 0 0 0 0 0 0 0 0 0 0 0 0 0 0 0 0 0 0 0 0 0 0 0 0 0 0 0 0 0 0 0 0 0 0 0 0 0 0 0 0 0 0 0
0 0 0 0 0 0 0 0 0 0 0 0 0 0 0 0 0 0 0 0 0 0 0 0 0 0 0 0 0 0 0 0 0 0 0 0 0 0 0 0 0 0 0 0
0 0 0 0 0 0 0 0 0 0 0 0 0 0 0 0 0 0 0 0 0 0 0 0 0 0 0 0 0 0 0 0 0 0 0 0 0 0 0 0 0 0 0 0
0 0 0 0 0 0 0 0 0 0 0 0 0 0 0 0 0 0 0 0 0 0 0 0 0 0 0 0 0 0 0 0 0 0 0 0 0 0 0 0 0 0 0 0
0 0 0 0 0 0 0 0 0 0 0 0 0 0 0 0 0 0 0 0 0 0 0 0 0 0 0 0 0 0 0 0 0 0 0 0 0 0 0 0 0 0 0 0
0 0 0 0 0 0 0 0 0 0 0 0 0 0 0 0 0 0 0 0 0 0 0 0 0 0 0 0 0 0 0 0 0 0 0 0 0 0 0 0 0 0 0 0
0 0 0 0 0 0 0 0 0 0 0 0 0 0 0 0 0 0 0 0 0 0 0 0 0 0 0 0 0 0 0 0 0 0 0 0 0 0 0 0 0 0 0 0
Wind_Speed
18 21 21 24 26 22 21 22 22 25 27 26 20 18 18 17 15 12 9 5 4 7 9 11 12 13 13 14 14 15 16 16 15 15 15 15 14 13 12 10 9 8 6 5
16 20 20 23 23 20 18 17 21 25 27 21 16 13 12 12 10 9 7 3 7 10 12 12 13 13 14 14 14 15 16 16 16 16 15 14 13 12 11 9 8 6 5 3
11 14 16 10 8 9 9 9 11 15 17 15 13 11 11 10 8 6 4 5 10 11 11 12 12 14 14 14 15 15 16 16 15 15 15 13 12 11 10 8 7 5 4 2
8 11 7 4 6 9 11 11 11 14 14 11 10 8 8 8 6 3 3 8 10 11 12 12 13 13 14 14 15 16 16 16 15 15 14 13 11 10 8 6 5 4 2 1
5 7 11 8 4 5 6 7 6 9 11 9 6 5 4 8 4 2 7 10 11 12 13 14 14 15 16 15 15 16 16 15 14 14 13 12 10 9 7 5 4 3 1 1
5 6 6 6 6 4 4 5 7 8 7 6 4 1 5 8 8 10 12 12 13 13 14 15 14 15 16 16 15 15 15 14 13 12 12 11 9 8 5 4 3 2 1 2
7 6 8 7 6 4 4 7 9 8 6 2 0 3 5 7 10 11 13 13 14 14 13 13 14 15 16 16 15 14 14 13 12 11 10 9 8 6 5 3 2 1 2 3
5 6 7 2 3 3 6 7 7 6 2 3 7 7 8 10 11 12 13 13 13 13 13 12 13 15 17 15 14 14 14 13 11 10 8 7 7 5 4 2 0 2 4 5
6 7 4 2 5 7 6 7 5 3 2 8 9 8 10 10 11 12 12 12 12 15 15 13 12 14 17 15 14 14 13 12 10 9 7 6 5 4 3 1 1 3 4 5
7 10 8 7 6 3 3 4 2 2 7 8 10 11 11 11 11 12 12 12 13 15 15 13 13 13 15 14 13 13 13 11 9 8 6 5 3 2 1 1 2 3 4 5
7 8 7 1 2 2 4 5 6 7 8 11 14 13 12 11 11 11 12 12 12 14 15 15 14 14 13 12 12 13 11 9 7 6 5 4 3 1 1 1 3 6 5 6
5 3 3 3 2 3 5 6 8 11 12 11 11 14 14 12 12 12 12 13 14 15 15 14 14 13 11 10 11 11 9 7 5 4 3 2 1 0 2 2 5 7 8 9
4 1 1 2 3 4 6 7 8 9 12 13 12 13 14 14 12 13 14 14 15 15 15 14 13 12 9 9 9 9 8 6 4 3 2 1 1 3 3 2 4 6 7 10
5 4 3 4 5 7 9 11 12 13 12 12 13 13 14 15 14 14 14 14 14 15 14 13 13 11 9 9 9 9 8 6 4 3 1 1 2 3 4 5 7 6 7 10
6 5 2 7 10 11 11 12 13 13 13 13 12 13 14 15 15 14 13 13 14 14 13 13 12 10 8 8 8 8 5 4 3 2 1 2 3 3 4 5 6 7 7 8
4 5 8 10 12 12 12 12 13 13 13 14 13 13 13 15 15 13 12 12 13 13 12 11 11 9 7 7 7 5 5 5 2 2 2 2 3 4 4 5 6 7 7 8
7 7 8 9 12 13 12 11 12 13 14 14 14 14 15 15 14 13 11 11 12 12 10 10 10 8 7 6 5 4 3 3 3 2 2 3 4 4 5 6 6 7 8 9
6 6 10 13 15 15 13 13 13 13 13 14 15 15 15 15 14 13 12 12 12 11 9 9 8 8 7 6 4 3 3 2 2 2 3 3 4 5 5 6 7 8 8 9
4 6 9 12 13 14 14 14 14 13 14 15 15 14 13 13 13 13 12 12 12 10 7 8 10 7 6 5 4 3 3 2 2 2 3 5 5 5 5 6 7 8 8 8
5 7 10 13 14 14 15 15 15 14 13 14 15 15 14 13 12 12 12 9 6 6 8 8 7 6 5 5 4 3 2 2 2 3 4 4 5 5 5 6 7 8 8 8
7 10 13 14 14 13 15 16 16 16 14 14 15 15 15 13 12 11 10 8 6 7 8 9 5 4 4 3 3 2 2 2 3 3 4 4 5 5 6 6 7 7 7 8
7 10 13 14 14 14 12 13 14 16 15 14 14 15 15 13 11 9 8 7 7 9 6 4 4 5 5 4 2 2 2 3 3 4 4 4 5 6 6 7 7 7 7 8
7 9 11 13 14 14 13 12 13 14 15 15 15 14 13 11 9 9 8 6 6 9 6 4 6 7 5 2 2 2 3 3 4 4 4 5 5 5 6 7 7 7 7 8
9 10 11 12 14 15 15 13 12 11 13 13 12 12 12 10 7 5 7 11 11 10 6 6 7 6 4 2 2 2 3 4 4 4 5 5 5 5 6 6 7 7 8 9
10 11 12 13 13 11 14 15 15 14 13 11 11 9 6 5 7 8 8 9 11 8 5 5 5 4 2 2 2 3 3 4 5 6 5 5 5 6 6 6 7 7 8 8
10 9 9 8 9 10 11 11 11 10 10 10 8 7 7 8 9 8 7 7 8 7 4 2 2 2 2 3 3 4 4 5 5 5 5 6 6 7 6 7 9 8 8 8
9 8 8 9 9 9 9 10 11 11 10 11 10 8 8 8 7 7 7 5 4 3 2 2 2 2 3 3 4 4 4 5 5 5 5 6 6 6 7 8 7 7 8 9
Wind_Direction
260 272 276 271 272 267 251 244 251 262 268 275 281 282 281 282 285 286 282 265 193 159 145 141 139 135 132 131 132 133 129 126 125 124 123 122 122 123 124 123 123 125 127 127
275 274 275 276 276 276 266 252 249 261 270 277 288 286 283 282 282 279 278 228 161 149 143 142 139 134 131 130 131 129 124 122 122 122 121 121 123 124 123 123 127 131 131 132
288 304 296 277 283 287 275 259 251 256 263 280 285 287 290 294 287 279 263 165 152 148 143 140 137 135 132 129 127 123 120 120 122 121 121 123 125 126 127 130 135 137 135 150
292 309 297 314 309 293 291 285 266 262 274 289 297 304 306 307 292 272 167 145 141 136 130 127 126 124 122 122 121 119 118 119 121 123 124 127 128 127 129 132 138 140 144 201
275 291 285 295 317 323 311 306 319 291 286 288 292 287 334 1 3 104 123 124 123 124 124 123 123 125 122 119 118 118 119 122 125 128 129 131 129 128 130 135 138 145 174 260
264 288 290 312 332 321 265 317 2 336 311 301 297 336 34 19 60 89 99 106 113 117 120 120 125 127 121 119 118 118 120 122 125 128 129 128 126 125 128 134 137 163 220 280
244 263 275 290 312 302 325 341 337 330 316 279 116 43 54 61 75 87 97 106 112 115 114 119 124 122 115 112 112 115 117 118 119 120 119 120 120 122 129 134 151 224 281 296
212 235 263 305 313 310 319 317 315 318 316 132 109 95 86 84 88 94 99 105 109 108 107 112 118 115 108 108 113 116 116 114 114 114 113 117 122 124 125 131 226 310 312 314
224 248 296 294 267 292 305 294 306 310 137 131 117 107 102 97 96 97 100 103 106 108 105 103 107 112 111 116 120 118 115 114 114 113 113 121 124 126 125 91 332 323 319 315
263 267 276 284 290 303 326 313 332 130 137 134 123 120 112 106 101 100 101 105 109 107 104 101 103 106 113 120 121 120 118 118 120 121 120 117 110 101 75 355 328 318 316 315
258 278 297 307 5 33 69 83 97 103 115 125 124 120 116 110 105 104 104 104 105 105 106 107 109 109 114 121 124 120 119 119 120 118 119 113 100 64 350 336 320 318 318 316
254 305 294 346 60 106 110 106 113 114 110 112 119 120 116 109 108 108 108 108 107 107 109 112 112 111 113 121 124 123 120 119 115 114 111 102 80 167 215 291 313 312 312 313
268 64 48 96 109 114 113 116 116 115 118 117 114 116 115 112 110 111 111 111 112 113 114 114 111 108 109 114 115 114 114 114 112 112 105 76 357 333 324 288 275 295 306 316
215 178 184 170 145 128 120 114 108 105 106 110 114 114 113 112 112 110 111 113 113 112 112 111 107 102 104 107 106 105 105 103 104 101 85 23 345 333 325 322 320 318 318 318
205 208 160 128 127 128 128 126 119 115 114 111 114 116 118 117 114 112 114 115 112 109 109 109 106 103 104 106 105 105 104 104 102 90 49 358 337 323 317 312 309 311 314 319
133 123 132 141 144 145 146 144 133 129 126 122 117 115 114 114 113 114 118 121 117 114 113 111 108 108 107 107 107 102 96 92 77 51 20 350 333 321 316 312 311 313 316 324
149 159 160 161 162 161 157 151 142 137 132 127 125 124 122 119 115 113 110 108 107 109 111 112 112 110 107 106 103 98 95 86 61 31 8 344 325 319 316 314 314 315 315 321
201 192 184 175 166 159 150 142 141 138 133 132 132 131 130 129 125 121 118 114 107 102 101 108 114 114 110 104 96 88 80 64 38 12 345 331 324 321 315 313 315 315 315 319
181 168 166 163 160 153 144 141 139 134 134 137 135 131 126 123 123 124 125 123 121 117 119 124 125 119 113 101 90 75 65 50 19 353 334 322 316 315 317 314 314 315 317 318
147 148 148 147 146 145 141 138 136 135 138 136 130 126 123 124 126 126 122 114 111 122 129 130 127 118 110 95 80 64 51 21 351 336 325 319 320 319 316 316 317 316 316 315
142 142 142 141 139 139 140 142 140 137 138 139 135 131 128 128 129 128 124 116 117 127 129 130 122 117 106 93 74 54 28 355 334 326 320 317 316 315 315 316 315 313 312 312
142 142 141 139 136 135 138 138 136 135 134 131 127 128 128 129 126 116 107 120 135 136 128 124 118 111 101 87 58 33 357 332 322 317 314 314 314 313 313 314 310 308 306 305
135 136 138 138 136 131 127 128 132 133 133 134 136 136 133 131 132 129 124 131 136 134 126 120 116 106 90 66 33 353 328 319 316 314 311 309 306 305 304 305 302 302 302 302
131 131 130 129 128 127 124 123 120 119 120 119 123 128 129 125 110 103 123 136 134 126 114 112 105 89 67 30 349 324 316 314 313 308 304 303 302 298 295 295 296 297 297 299
129 129 133 138 136 129 125 123 118 117 113 111 111 110 109 114 122 125 123 126 125 114 98 88 77 64 34 348 327 316 311 307 306 307 308 305 298 294 292 291 291 293 295 295
136 137 139 135 128 132 134 132 128 128 125 120 112 106 106 107 112 112 109 111 112 107 97 76 43 20 348 328 317 312 310 309 310 306 297 293 291 290 288 289 292 291 291 292
129 127 123 120 127 135 133 132 131 133 134 131 124 122 120 116 112 110 110 107 106 99 88 57 15 345 326 318 312 311 306 302 298 294 291 287 285 284 285 287 288 289 290 290